Location: Siratepeler Tepesi
(39.1042°N, 32.0781°E)
Time: 05:40:49
(UTC+00:00)

Cosmos 1707 Rocket - Pass Details

Date: 11 April 2026
Orbit: 597 x 625 km, 82.5° (Epoch: 9 May)

Event Time Altitude Azimuth Distance (km) Brightness Sun altitude
Rises 16:52:01 0° 359° (N) 2,858 7.2 -5.9°
Reaches altitude 10° 16:54:19 10° 5° (N) 1,948 6.3 -6.3°
Maximum altitude 16:58:28 46° 79° (E) 803 3.8 -7.1°
Drops below altitude 10° 17:02:34 10° 154° (SSE) 1,928 5.7 -7.9°
Sets 17:04:49 0° 160° (SSE) 2,825 6.6 -8.3°
